Good Bye Litespeed [SSG TEAM]

v.1.3

Zona waktu server: Asia/Jakarta

Waktu server saat ini: 2026-05-07 09:11:13


curdir: / / var / www / ftik_piaud / public / assetslte / bower_components / ckeditor / lang / [ GO Home ]

Item NameSizeDatePermissionsViewDeleteRename
. 4096 2023-02-12 18:15:38 0755
.. 4096 2023-02-12 18:15:38 0755
_translationstatus.txt 2099 2023-02-12 18:15:36 0644
af.js 12444 2023-02-12 18:15:32 0644
ar.js 15954 2023-02-12 18:15:30 0644
az.js 13459 2023-02-12 18:15:30 0644
bg.js 19062 2023-02-12 18:15:38 0644
bn.js 17033 2023-02-12 18:15:33 0644
bs.js 12558 2023-02-12 18:15:32 0644
ca.js 13871 2023-02-12 18:15:35 0644
cs.js 13782 2023-02-12 18:15:31 0644
cy.js 12888 2023-02-12 18:15:34 0644
da.js 13061 2023-02-12 18:15:33 0644
de-ch.js 13649 2023-02-12 18:15:33 0644
de.js 13930 2023-02-12 18:15:31 0644
el.js 19826 2023-02-12 18:15:30 0644
en-au.js 12470 2023-02-12 18:15:34 0644
en-ca.js 12470 2023-02-12 18:15:37 0644
en-gb.js 12480 2023-02-12 18:15:30 0644
en.js 12488 2023-02-12 18:15:36 0644
eo.js 13263 2023-02-12 18:15:36 0644
es-mx.js 13919 2023-02-12 18:15:32 0644
es.js 13950 2023-02-12 18:15:33 0644
et.js 12965 2023-02-12 18:15:38 0644
eu.js 13697 2023-02-12 18:15:31 0644
fa.js 17106 2023-02-12 18:15:32 0644
fi.js 13277 2023-02-12 18:15:34 0644
fo.js 13200 2023-02-12 18:15:36 0644
fr-ca.js 13758 2023-02-12 18:15:37 0644
fr.js 14553 2023-02-12 18:15:35 0644
gl.js 13961 2023-02-12 18:15:31 0644
gu.js 21214 2023-02-12 18:15:31 0644
he.js 15431 2023-02-12 18:15:37 0644
hi.js 17168 2023-02-12 18:15:32 0644
hr.js 12825 2023-02-12 18:15:38 0644
hu.js 14148 2023-02-12 18:15:34 0644
id.js 12803 2023-02-12 18:15:38 0644
is.js 12887 2023-02-12 18:15:36 0644
it.js 13966 2023-02-12 18:15:31 0644
ja.js 15368 2023-02-12 18:15:38 0644
ka.js 22293 2023-02-12 18:15:37 0644
km.js 24550 2023-02-12 18:15:34 0644
ko.js 13607 2023-02-12 18:15:32 0644
ku.js 18812 2023-02-12 18:15:29 0644
lt.js 13722 2023-02-12 18:15:32 0644
lv.js 14031 2023-02-12 18:15:35 0644
mk.js 13925 2023-02-12 18:15:37 0644
mn.js 16206 2023-02-12 18:15:31 0644
ms.js 12717 2023-02-12 18:15:33 0644
nb.js 12721 2023-02-12 18:15:37 0644
nl.js 13211 2023-02-12 18:15:33 0644
no.js 12782 2023-02-12 18:15:31 0644
oc.js 14065 2023-02-12 18:15:35 0644
pl.js 13914 2023-02-12 18:15:37 0644
pt-br.js 14034 2023-02-12 18:15:36 0644
pt.js 13932 2023-02-12 18:15:37 0644
ro.js 14592 2023-02-12 18:15:34 0644
ru.js 19720 2023-02-12 18:15:31 0644
si.js 17604 2023-02-12 18:15:36 0644
sk.js 13917 2023-02-12 18:15:30 0644
sl.js 13067 2023-02-12 18:15:35 0644
sq.js 14056 2023-02-12 18:15:30 0644
sr-latn.js 13157 2023-02-12 18:15:33 0644
sr.js 18379 2023-02-12 18:15:33 0644
sv.js 12924 2023-02-12 18:15:36 0644
th.js 20069 2023-02-12 18:15:35 0644
tr.js 13825 2023-02-12 18:15:34 0644
tt.js 16066 2023-02-12 18:15:32 0644
ug.js 18807 2023-02-12 18:15:30 0644
uk.js 19791 2023-02-12 18:15:34 0644
vi.js 15131 2023-02-12 18:15:35 0644
zh-cn.js 12215 2023-02-12 18:15:35 0644
zh.js 12139 2023-02-12 18:15:34 0644